Dewpoint
35 35 35 34 34 34 31 32 23 39 41 30 31 29 23 20 20 15 9 16 17 18 17 13 12 17 22 26 27 27 30 29 23 20 20 23 24 24 24 21 19 19 18 -0
35 34 35 35 34 34 31 27 29 39 39 22 20 17 8 11 11 14 16 16 17 17 13 13 12 15 18 19 21 20 24 22 20 18 20 23 19 12 14 22 23 21 17 -2
35 35 35 35 35 34 31 28 26 32 30 22 17 13 15 9 11 13 15 17 12 13 11 13 13 12 16 13 13 21 19 6 1 8 5 10 4 1 8 11 20 13 2 -2
34 35 34 34 35 34 32 28 24 23 15 12 14 10 9 6 6 9 15 11 11 11 10 7 7 6 4 1 5 13 11 0 2 2 2 1 -1 -2 -0 -1 2 6 -1 -2
34 35 34 34 34 33 28 26 24 18 11 11 13 8 7 6 5 6 9 9 11 11 8 8 5 8 6 -3 -1 7 13 2 4 0 3 0 -4 -1 -0 -2 -1 -2 -2 -4
33 34 32 32 34 30 27 29 28 14 9 11 6 4 4 4 6 6 10 11 11 13 12 12 12 14 12 10 -2 4 8 6 6 1 4 4 -6 -4 -3 -3 -1 1 -3 -0
25 26 28 25 29 32 28 27 27 14 4 5 2 3 4 3 5 4 7 10 10 13 13 14 16 15 13 13 -1 -0 4 10 8 2 4 -8 -2 3 1 -3 -1 1 0 1
22 21 22 21 20 20 23 23 24 14 4 5 -0 1 1 4 6 5 6 10 11 13 13 12 6 7 8 6 -10 -9 -2 10 2 -2 -7 -5 -1 0 -1 -2 -3 1 -2 -5
20 19 18 17 17 16 15 14 21 18 10 -2 2 2 3 0 0 2 8 7 9 9 14 5 -7 -11 -9 -12 -13 -14 -9 1 4 1 -4 -8 -3 -1 -2 3 -6 -2 -4 -4
23 21 16 15 14 12 13 13 18 15 6 4 4 -1 -1 3 1 3 5 1 1 4 3 -2 -5 -10 -7 -17 -17 -13 -14 -9 -9 -7 -8 -6 -1 -4 -4 -6 -4 -2 -3 -2
22 21 19 15 12 8 10 12 18 15 6 3 2 3 2 2 1 -1 -1 3 -4 -1 -4 -7 -10 -12 -10 -10 -11 -11 -14 -10 -14 -12 -14 -14 -1 -8 -9 -3 -3 -4 -5 -4
23 21 19 15 14 11 8 11 18 18 13 5 5 6 5 3 4 5 3 1 1 1 1 -3 -8 -12 -13 -11 -15 -10 -19 -10 -9 -11 -10 -2 -1 -2 -0 -1 -2 -5 -4 -5
23 24 22 18 18 16 15 16 15 14 13 13 5 -2 5 6 7 8 7 0 4 0 2 0 -5 -9 -7 -8 -3 -3 -4 -7 -8 -7 -5 -7 -4 -2 -2 -3 -2 -3 -4 -4
25 25 24 25 21 17 10 9 10 6 1 1 2 8 3 3 5 8 9 8 3 2 2 2 -1 -4 -5 -5 -3 -0 -0 -3 -4 -7 -7 -6 -5 -5 -3 -3 -5 -5 -4 -4
27 26 26 23 26 19 14 14 13 10 16 2 0 2 1 -2 3 5 5 5 6 6 4 2 -2 -3 -1 -7 -2 3 7 5 2 1 1 -5 -3 0 -1 -1 -1 -1 -1 -1
26 25 25 21 28 23 8 9 11 13 10 7 -1 2 -3 -2 3 -0 0 -0 5 7 5 3 2 -5 1 3 3 9 11 8 8 6 3 1 0 0 0 -0 -1 -0 1 1
24 23 25 20 15 12 8 8 11 14 13 7 3 1 -1 -2 3 3 3 4 7 8 6 4 4 3 1 6 2 9 11 11 12 9 4 3 4 4 1 -2 -3 -1 -1 -1
21 21 24 23 21 20 19 21 12 7 5 10 8 3 3 -0 -1 2 2 6 8 4 5 5 5 4 6 4 8 11 10 10 9 11 6 6 7 4 3 4 2 0 0 -0
22 22 21 9 5 5 15 19 11 9 10 9 7 2 2 1 -2 1 4 4 2 1 2 2 1 6 4 7 10 11 11 10 10 10 9 8 4 4 4 5 5 5 4 4
22 7 2 6 4 18 12 6 8 9 6 8 4 -0 2 0 -1 2 1 3 -2 3 -0 -1 3 8 12 14 12 15 12 12 12 9 6 7 7 7 9 9 10 11 10 8
5 5 5 5 13 7 5 8 5 7 7 5 3 1 2 1 1 0 0 -1 -1 -0 -1 -2 0 6 10 13 11 14 13 12 11 11 11 11 11 10 10 9 9 9 9 9
11 9 9 9 10 8 3 4 5 6 4 6 4 4 2 1 2 2 2 -0 1 1 -2 1 5 9 11 9 9 9 10 11 11 10 11 10 10 9 9 9 9 9 9 10
8 7 4 7 5 -0 1 1 2 5 7 8 6 3 2 2 2 2 1 1 4 0 4 3 6 8 8 8 9 8 7 7 8 8 7 7 7 7 7 8 8 8 8 8
5 4 -4 4 5 4 6 5 5 7 6 6 5 3 2 3 3 1 5 5 2 1 -2 -5 3 7 8 7 7 8 7 8 7 7 7 7 6 7 7 6 7 8 8 8
3 6 -1 1 3 8 8 6 6 7 6 5 4 4 2 4 4 4 5 1 -1 3 -3 3 7 8 7 7 7 7 8 8 7 7 7 6 6 6 6 6 6 8 7 7
8 7 3 1 9 10 10 10 8 6 6 5 5 5 6 5 5 3 3 -1 -2 1 5 7 7 7 6 7 7 8 8 7 7 6 6 5 5 6 6 6 5 5 6 7
5 6 5 9 9 6 6 4 6 6 7 7 8 4 3 6 2 1 3 2 5 8 8 7 7 6 7 7 7 7 7 7 6 6 6 6 6 6 3 3 3 4 6 8
Wind_Speed
20 21 22 23 23 26 11 4 2 12 10 3 1 3 8 18 19 20 14 13 15 16 25 23 19 16 9 20 19 10 14 10 20 20 3 3 8 13 15 11 8 10 8 6
18 20 20 20 20 18 7 3 4 8 4 6 9 13 14 12 19 18 12 9 12 13 12 13 14 25 15 28 22 26 13 8 17 4 4 4 3 9 10 2 1 6 8 7
19 19 19 20 19 14 1 2 3 6 7 6 7 11 7 14 15 11 12 9 13 22 12 13 16 24 15 29 22 25 10 9 14 5 4 3 8 26 12 6 7 5 6 23
19 18 21 21 20 10 4 7 5 5 7 10 10 13 10 13 14 10 12 7 20 15 7 8 12 17 18 23 26 20 7 8 17 19 28 36 27 26 32 20 9 4 19 24
21 20 22 23 20 11 7 3 3 6 5 9 9 13 10 11 12 5 8 12 20 10 3 7 11 14 13 10 21 16 7 11 12 10 21 37 31 29 18 18 17 24 23 16
22 21 24 26 25 7 5 4 4 4 10 7 6 9 11 8 14 7 9 13 18 9 7 17 19 6 2 3 17 16 12 8 2 5 6 8 16 26 15 17 17 2 5 9
25 27 25 27 25 14 7 4 2 4 5 9 7 8 11 13 11 7 12 12 9 8 24 21 15 17 14 11 12 19 12 6 5 3 9 7 0 7 12 17 14 15 15 9
27 27 27 22 25 23 10 4 3 4 7 7 7 16 10 12 5 4 11 9 8 19 14 7 7 2 3 4 15 22 21 4 7 5 12 8 4 6 6 6 4 5 8 5
28 27 25 28 18 13 11 9 6 5 6 15 6 7 11 9 15 7 3 8 14 9 5 7 13 10 7 10 23 22 21 25 8 8 7 6 6 7 7 5 3 3 2 3
17 19 24 25 17 21 12 9 7 8 10 5 3 6 6 7 7 7 5 13 12 14 11 8 9 8 6 11 13 14 16 12 22 17 7 5 4 8 6 4 2 3 1 3
19 16 15 19 22 23 11 7 11 5 8 4 3 1 4 5 6 8 10 7 6 12 10 8 6 8 7 4 2 7 14 11 10 8 6 5 6 6 4 2 4 4 4 6
16 17 17 16 13 11 7 7 4 8 10 4 4 5 2 1 4 5 8 3 3 6 3 6 4 7 6 3 8 4 8 5 3 5 4 3 4 4 3 4 7 5 7 8
12 14 17 15 14 14 7 5 3 4 5 3 2 4 1 4 4 3 4 4 2 3 1 4 3 9 5 8 9 6 2 2 4 6 2 5 5 7 9 7 10 10 11 12
8 11 10 3 9 12 8 6 3 1 2 3 2 2 2 4 1 3 4 3 0 0 2 6 6 4 5 5 1 8 4 4 8 6 4 12 7 9 10 11 11 14 15 16
10 12 13 10 9 10 12 10 7 4 2 3 3 3 2 6 3 6 4 1 3 3 4 7 5 3 1 0 2 9 2 5 7 6 6 6 13 7 7 12 15 16 16 18
8 11 13 9 9 4 1 2 3 12 4 1 2 3 4 12 6 5 10 6 5 4 4 4 3 1 1 7 7 13 9 7 11 8 3 10 20 19 16 15 18 18 16 17
5 8 11 12 7 5 5 5 7 13 4 1 2 1 4 10 3 4 6 6 5 4 3 4 2 1 2 6 14 23 20 17 12 14 9 13 10 10 5 11 17 16 17 19
1 3 5 8 10 8 5 7 13 3 3 5 5 6 3 12 7 6 8 6 2 7 2 1 3 1 2 4 18 14 18 19 13 10 14 21 19 19 22 16 15 17 20 19
3 3 4 0 4 4 3 3 4 9 8 5 5 11 8 13 6 4 5 4 3 1 3 3 3 1 5 10 20 16 20 16 21 21 17 17 17 22 20 16 17 18 22 19
5 2 0 4 3 5 3 1 3 8 9 8 5 1 7 7 7 4 8 3 3 1 2 4 2 3 1 7 21 13 21 21 20 21 24 23 23 21 22 21 19 18 20 19
1 2 4 1 3 1 4 7 9 7 5 6 3 4 9 4 5 5 4 4 4 2 3 4 2 2 11 20 24 19 18 20 20 20 20 20 20 22 23 23 21 21 21 21
3 6 3 0 7 8 7 7 4 7 6 8 8 10 4 3 2 3 3 3 2 3 6 2 3 5 19 26 26 25 23 23 23 22 22 22 21 21 21 22 22 21 21 20
2 4 5 7 9 11 8 12 6 11 9 7 13 8 5 3 1 3 3 4 4 4 2 5 3 20 26 26 25 25 24 24 23 23 22 23 23 22 21 22 22 22 22 19
6 6 9 8 7 8 4 8 10 7 7 14 13 5 3 3 3 2 5 4 3 7 7 7 20 27 28 26 25 25 28 26 25 24 23 23 23 23 22 20 20 21 21 22
6 6 6 5 1 2 4 4 6 5 8 10 4 4 2 3 3 3 5 10 7 5 9 18 25 29 27 28 27 27 26 25 24 23 22 23 22 22 23 22 21 19 19 20
5 7 6 2 1 7 7 7 7 7 10 2 2 3 4 7 5 8 6 11 5 12 18 24 26 28 28 27 26 25 24 23 23 22 23 22 23 23 24 22 19 20 20 21
5 5 4 5 6 4 5 5 9 10 8 8 4 7 5 5 6 6 5 6 17 24 25 22 24 27 28 26 25 25 24 24 22 23 22 23 21 21 21 21 22 22 22 19
Wind_Direction
355 353 353 351 347 347 355 343 36 356 337 321 357 328 349 324 327 336 318 301 313 315 329 304 295 281 290 358 335 288 232 190 231 213 80 74 220 223 208 221 207 227 258 137
1 359 356 353 351 356 339 32 21 22 338 41 341 322 317 342 336 349 346 321 349 355 308 305 305 314 340 3 5 346 330 324 225 169 127 76 41 10 348 320 130 195 206 161
10 4 1 359 355 351 356 8 23 34 56 46 352 354 355 338 338 331 353 328 350 340 311 336 322 345 329 344 359 346 57 62 59 323 34 5 44 15 4 339 208 133 61 138
15 10 10 5 359 7 301 12 53 8 4 358 355 1 357 344 354 351 355 351 351 338 293 327 2 1 339 345 357 345 67 77 84 87 74 73 61 46 46 57 13 57 137 129
21 20 12 8 8 344 62 44 22 62 37 343 6 8 14 338 339 310 338 343 335 7 6 5 321 344 7 32 330 347 14 136 115 94 79 72 55 30 43 42 58 78 97 93
36 27 23 20 17 6 76 40 74 88 23 355 4 8 339 319 338 260 262 326 321 291 330 314 294 271 192 7 8 342 340 162 186 158 268 313 28 8 32 54 40 36 88 102
40 37 32 31 29 42 80 58 22 82 38 33 20 349 324 301 309 272 304 319 324 342 322 298 253 246 240 259 18 20 344 338 15 88 329 53 58 54 73 75 47 64 84 77
42 43 39 38 42 45 78 41 45 102 80 344 3 345 336 312 317 271 270 291 305 316 309 325 337 26 15 331 1 13 1 310 61 89 66 148 114 35 0 354 43 36 79 52
48 49 48 47 48 53 70 47 347 81 104 13 314 321 343 347 343 334 281 315 319 316 289 6 20 21 323 341 339 359 4 30 68 38 59 54 33 15 350 303 60 154 80 27
47 49 46 50 56 62 80 50 352 77 96 30 340 16 329 321 308 290 298 338 344 340 16 45 26 36 331 9 4 342 349 9 40 47 85 85 11 338 331 306 28 170 268 308
52 58 57 56 57 57 74 61 11 75 98 95 171 173 357 339 342 348 333 311 13 1 39 31 22 32 23 350 38 352 9 353 15 6 62 44 2 310 338 335 253 247 263 290
65 62 58 53 50 49 51 69 36 39 73 114 175 193 196 213 267 297 349 56 351 8 354 43 50 34 25 316 31 7 17 22 346 25 23 315 301 267 270 256 279 286 284 290
64 57 53 52 53 53 78 102 25 66 109 122 106 0 165 226 222 224 343 72 355 45 302 37 64 71 335 26 21 332 91 154 325 324 192 279 266 249 245 250 253 275 276 280
47 35 15 49 69 71 73 76 22 338 107 83 97 177 47 348 67 200 229 315 202 25 357 57 54 72 3 41 37 18 360 298 327 267 281 306 266 261 274 283 281 278 278 278
44 22 11 13 152 108 83 78 53 40 1 91 126 138 42 17 2 46 72 42 309 13 51 47 57 64 317 24 258 23 348 336 340 308 316 270 286 293 259 269 271 272 274 277
15 17 13 25 153 165 261 208 65 21 354 157 163 100 20 10 2 25 29 24 36 60 56 78 82 169 323 22 10 22 352 250 245 269 285 258 272 286 268 262 262 261 261 259
18 31 44 61 80 61 54 69 318 334 317 311 93 76 34 349 353 28 3 30 45 46 85 57 46 83 277 41 14 340 335 330 303 249 278 292 260 277 284 246 265 272 276 269
254 64 103 67 89 117 58 22 10 329 79 34 33 335 306 7 359 360 4 351 16 29 74 103 5 196 247 27 350 341 343 330 320 317 232 257 287 294 282 273 268 274 271 269
168 114 129 184 25 38 26 353 9 48 44 82 58 358 335 355 20 349 334 341 16 350 39 33 308 136 44 330 337 326 346 331 314 312 307 276 266 281 284 281 277 265 269 267
129 151 287 46 20 319 300 294 23 31 34 38 76 292 333 349 343 2 347 7 27 16 14 306 285 62 359 337 350 317 340 332 328 320 325 322 312 311 309 303 297 282 277 278
157 62 64 24 320 296 31 33 29 352 37 19 21 37 338 37 340 326 20 334 338 337 12 346 3 94 349 352 347 339 335 332 327 323 316 312 309 310 308 305 300 295 292 288
82 106 102 83 23 27 39 12 4 15 357 359 352 341 338 336 318 304 345 319 302 350 331 310 6 14 352 347 342 340 337 334 329 327 323 322 318 317 312 308 305 302 297 293
80 60 54 23 7 29 27 355 337 327 353 11 337 326 349 304 296 287 319 338 349 301 325 3 6 348 343 340 337 334 335 333 330 328 328 326 323 323 319 315 313 310 307 304
58 47 35 42 24 26 350 315 308 320 323 330 327 301 318 328 319 314 331 351 318 0 343 347 335 337 333 335 332 332 332 334 333 330 328 326 326 322 320 318 317 319 315 314
67 54 60 64 61 268 295 294 308 341 317 330 320 273 290 325 332 353 338 353 353 7 334 319 326 327 329 330 330 329 327 332 329 328 328 327 326 323 319 320 317 313 317 315
65 55 88 95 66 10 354 339 337 358 336 304 255 317 356 27 347 3 14 340 316 323 320 320 320 322 324 325 325 324 326 326 323 325 326 325 325 323 320 319 323 322 316 311
60 66 38 65 75 33 355 339 338 336 333 8 346 25 355 295 347 350 353 337 314 312 313 314 315 317 318 319 319 322 325 323 322 325 325 324 320 324 329 330 330 326 319 323